This demonstration page uses our WeatherBlox Daily Observations layout. Learn more.

Hourly Observations for February 13, 2020

Temp ( °F °C ) Dew Point ( °F °C ) Humidity (%) Winds ( mph kmh ) Pressure ( in mb ) Visibility ( mi km ) Precip ( " mm )
12:15 am 00:15 Clear 7 -13.9 -6 -21.2 54 54 N 16 26 30.49 1032 10 16.0934 0 0
12:35 am 00:35 Clear 7 -14 -6 -21 56 56 N 17 28 30.5 1033 10 16.0934 0 0
12:55 am 00:55 Clear 7 -14.1 -7 -21.7 53 53 N 13 20 30.51 1033 10 16.0934 0 0
1:15 am 01:15 Clear 6 -14.5 -6 -21 58 58 N 13 20 30.51 1033 10 16.0934 0 0
1:35 am 01:35 Clear 6 -14.5 -6 -21.2 57 57 NNW 15 24 30.52 1034 10 16.0934 0 0
1:55 am 01:55 Mostly Cloudy 6 -14.3 -5 -20.6 59 59 NNW 14 22 30.51 1033 10 16.0934 0 0
2:15 am 02:15 Mostly Cloudy 6 -14.6 -5 -20.8 60 60 NNW 16 26 30.52 1034 10 16.0934 0 0
2:35 am 02:35 Partly Cloudy 5 -15 -8 -22 55 55 NNW 15 24 30.53 1034 10 16.0934 0 0
2:55 am 02:55 Clear 4 -15.3 -8 -22.4 55 55 N 10 17 30.53 1034 10 16.0934 0 0
3:15 am 03:15 Clear 4 -15.4 -8 -22.3 56 56 N 14 22 30.53 1034 10 16.0934 0 0
3:35 am 03:35 Clear 4 -15.5 -8 -22.2 57 57 N 15 24 30.53 1034 10 16.0934 0 0
3:55 am 03:55 Clear 4 -15.6 -9 -22.6 55 55 N 12 19 30.54 1034 10 16.0934 0 0
4:15 am 04:15 Partly Cloudy 4 -15.5 -8 -22.1 57 57 N 9 15 30.54 1034 10 16.0934 0 0
4:35 am 04:35 Mostly Cloudy 4 -15.7 -8 -22.1 58 58 N 16 26 30.55 1034 10 16.0934 0 0
4:55 am 04:55 Mostly Cloudy 4 -15.7 -8 -22 59 59 N 12 19 30.55 1034 10 16.0934 0 0
5:15 am 05:15 Partly Cloudy 3 -16 -8 -22.3 59 59 N 14 22 30.56 1035 10 16.0934 0 0
5:35 am 05:35 Partly Cloudy 3 -16 -8 -22 60 60 N 8 13 30.57 1035 10 16.0934 0 0
5:55 am 05:55 Partly Cloudy 3 -16.2 -10 -23.4 54 54 N 10 17 30.57 1035 10 16.0934 0 0
6:15 am 06:15 Partly Cloudy 3 -16.2 -9 -23 56 56 N 10 17 30.57 1035 10 16.0934 0 0
6:35 am 06:35 Mostly Cloudy 3 -16.3 -10 -23.2 56 56 N 9 15 30.58 1036 10 16.0934 0 0
6:55 am 06:55 Partly Cloudy 2 -16.6 -9 -22.5 61 61 N 10 17 30.59 1036 10 16.0934 0 0
7:15 am 07:15 Clear 2 -16.7 -9 -22.6 61 61 NNE 10 17 30.59 1036 10 16.0934 0 0
7:35 am 07:35 Partly Cloudy 2 -16.6 -9 -22.5 61 61 N 8 13 30.6 1036 10 16.0934 0 0
7:55 am 07:55 Partly Cloudy 2 -16.5 -8 -22.4 61 61 N 8 13 30.61 1036 10 16.0934 0 0
8:15 am 08:15 Sunny 2 -16.5 -8 -22.1 62 62 N 10 17 30.62 1037 10 16.0934 0 0
8:35 am 08:35 Sunny 4 -15.8 -8 -22.2 58 58 N 9 15 30.62 1037 10 16.0934 0 0
8:55 am 08:55 Sunny 4 -15.5 -9 -23 53 53 N 10 17 30.63 1037 10 16.0934 0 0
9:15 am 09:15 Sunny 5 -15 -9 -22.6 53 53 NNE 8 13 30.62 1037 10 16.0934 0 0
9:35 am 09:35 Sunny 6 -14.6 -10 -23.3 48 48 N 5 7 30.63 1037 10 16.0934 0 0
9:55 am 09:55 Sunny 6 -14.6 -10 -23.4 47 47 N 6 9 30.64 1037 10 16.0934 0 0
10:15 am 10:15 Sunny 7 -14 -9 -23 47 47 NNW 3 6 30.63 1037 10 16.0934 0 0
10:35 am 10:35 Sunny 8 -13.1 -10 -23.4 42 42 N 5 7 30.61 1037 10 16.0934 0 0
10:55 am 10:55 Sunny 9 -12.8 -11 -24.1 39 39 Calm 30.61 1036 10 16.0934 0 0
11:15 am 11:15 Sunny 11 -11.8 -10 -23.6 37 37 NNE 6 9 30.6 1036 10 16.0934 0 0
11:35 am 11:35 Sunny 12 -11 -11 -24.1 33 33 NNW 3 6 30.59 1036 10 16.0934 0 0
11:55 am 11:55 Sunny 13 -10.4 -10 -23.4 34 34 N 5 7 30.58 1036 10 16.0934 0 0
12:15 pm 12:15 Sunny 14 -9.8 -10 -23.4 32 32 Calm 30.57 1035 10 16.0934 0 0
12:35 pm 12:35 Partly Cloudy 15 -9.7 -10 -23.6 31 31 NNE 5 7 30.56 1035 10 16.0934 0 0
12:55 pm 12:55 Partly Cloudy 15 -9.5 -9 -22.9 33 33 NNE 3 6 30.55 1035 10 16.0934 0 0
1:15 pm 13:15 Sunny 17 -8.1 -7 -21.7 33 33 NNE 5 7 30.53 1034 10 16.0934 0 0
1:35 pm 13:35 Sunny 17 -8.2 -7 -21.9 33 33 Calm 30.52 1033 10 16.0934 0 0
1:55 pm 13:55 Sunny 18 -7.6 -6 -21.2 33 33 Calm 30.49 1033 10 16.0934 0 0
2:15 pm 14:15 Mostly Cloudy 18 -7.8 -6 -21.1 34 34 Calm 30.49 1033 10 16.0934 0 0
2:35 pm 14:35 Cloudy 18 -7.6 -6 -21 34 34 Calm 30.49 1033 10 16.0934 0 0
2:55 pm 14:55 Cloudy 20 -6.6 -4 -20.1 34 34 Calm 30.48 1032 10 16.0934 0 0
3:15 pm 15:15 Cloudy 19 -7 -4 -20.1 35 35 Calm 30.49 1032 10 16.0934 0 0
3:35 pm 15:35 Mostly Cloudy 20 -6.6 -4 -19.9 34 34 ESE 3 6 30.48 1032 10 16.0934 0 0
3:55 pm 15:55 Partly Cloudy 21 -6.3 -3 -19.4 35 35 Calm 30.48 1032 10 16.0934 0 0
4:15 pm 16:15 Partly Cloudy 21 -6.3 -3 -19.4 35 35 Calm 30.48 1032 10 16.0934 0 0
4:35 pm 16:35 Partly Cloudy 21 -6 -2 -19.1 35 35 SSW 3 6 30.47 1032 10 16.0934 0 0
4:55 pm 16:55 Partly Cloudy 21 -5.9 -1 -18.5 37 37 SW 7 11 30.46 1032 10 16.0934 0 0
5:15 pm 17:15 Partly Cloudy 21 -6 -1 -18.3 38 38 SW 3 6 30.47 1032 10 16.0934 0 0
5:35 pm 17:35 Mostly Cloudy 21 -6 0 -18 38 38 SW 6 9 30.47 1032 10 16.0934 0 0
5:55 pm 17:55 Partly Cloudy 20 -6.5 0 -18 40 40 SSW 7 11 30.47 1032 10 16.0934 0 0
6:15 pm 18:15 Clear 19 -7.1 0 -17.9 42 42 S 8 13 30.48 1032 10 16.0934 0 0
6:35 pm 18:35 Clear 18 -8 0 -17.8 46 46 S 7 11 30.49 1032 10 16.0934 0 0
6:55 pm 18:55 Clear 16 -8.9 0 -17.6 50 50 S 7 11 30.5 1033 10 16.0934 0 0
7:15 pm 19:15 Clear 15 -9.2 0 -17.6 51 51 S 6 9 30.52 1033 10 16.0934 0 0
7:35 pm 19:35 Clear 15 -9.6 0 -17.6 52 52 S 6 9 30.52 1034 10 16.0934 0 0
7:55 pm 19:55 Clear 15 -9.4 1 -17.5 52 52 S 8 13 30.52 1034 10 16.0934 0 0
8:15 pm 20:15 Clear 14 -9.9 0 -17.6 54 54 SSW 8 13 30.54 1034 10 16.0934 0 0
8:35 pm 20:35 Clear 14 -9.9 1 -17.1 56 56 S 9 15 30.54 1034 10 16.0934 0 0
8:55 pm 20:55 Clear 15 -9.7 1 -17 56 56 SSW 9 15 30.52 1034 10 16.0934 0 0
9:15 pm 21:15 Clear 14 -10.1 2 -16.8 58 58 S 8 13 30.53 1034 10 16.0934 0 0
9:35 pm 21:35 Clear 13 -10.4 2 -16.6 61 61 S 7 11 30.54 1034 10 16.0934 0 0
9:55 pm 21:55 Clear 13 -10.4 2 -16.6 61 61 S 8 13 30.53 1034 10 16.0934 0 0
10:15 pm 22:15 Clear 12 -11.2 2 -16.8 64 64 S 8 13 30.55 1035 10 16.0934 0 0
10:35 pm 22:35 Clear 12 -10.9 2 -16.8 62 62 S 8 13 30.54 1034 10 16.0934 0 0
10:55 pm 22:55 Clear 12 -10.9 2 -16.7 63 63 S 9 15 30.55 1034 10 16.0934 0 0
11:15 pm 23:15 Clear 12 -11 2 -16.9 62 62 S 9 15 30.55 1034 10 16.0934 0 0
11:35 pm 23:35 Clear 12 -11 1 -17.2 61 61 S 8 13 30.54 1034 10 16.0934 0 0
11:55 pm 23:55 Clear 12 -11 1 -17.5 59 59 S 10 17 30.53 1034 10 16.0934 0 0

Powered by AerisWeather